• In Russia
  • List of Countries
  • For 7 days
  • Water Temperature
  • Satellite Maps
  • Weather Map
  • Weather Widgets
  • user-avatar
    Login

    Hourly Weather Barra

    Today, 5 December, Monday

    Time Temperature Precipitation Wind Pressure Humidity
    00:00 +21°C° 0 mm 2 mps 748 mmHg 96%
    01:00 +21°C° 0 mm 2 mps 748 mmHg 96%
    02:00 +21°C° 0 mm 2 mps 748 mmHg 96%
    03:00 +21°C° 0 mm 2 mps 748 mmHg 96%
    04:00 +21°C° 0 mm 3 mps 748 mmHg 96%
    05:00 +24°C° 0 mm 3 mps 749 mmHg 91%
    06:00 +25°C° 0 mm 3 mps 749 mmHg 85%
    07:00 +27°C° 0 mm 3 mps 749 mmHg 79%
    08:00 +28°C° 0 mm 3 mps 749 mmHg 69%
    09:00 +30°C° 0 mm 3 mps 749 mmHg 60%
    10:00 +33°C° 0 mm 3 mps 749 mmHg 50%
    11:00 +34°C° 0 mm 3 mps 749 mmHg 47%
    12:00 +35°C° 0 mm 4 mps 749 mmHg 43%
    13:00 +35°C° 0 mm 4 mps 748 mmHg 40%
    14:00 +35°C° 0 mm 4 mps 748 mmHg 42%
    15:00 +34°C° 0 mm 4 mps 748 mmHg 43%
    16:00 +33°C° 0 mm 3 mps 747 mmHg 45%
    17:00 +30°C° 0 mm 3 mps 748 mmHg 57%
    18:00 +28°C° 0 mm 3 mps 748 mmHg 68%
    19:00 +25°C° 0 mm 2 mps 748 mmHg 80%
    20:00 +24°C° 0 mm 2 mps 748 mmHg 85%
    21:00 +23°C° 0 mm 2 mps 749 mmHg 90%
    22:00 +21°C° 0 mm 2 mps 749 mmHg 95%
    23:00 +21°C° 0 mm 2 mps 748 mmHg 96%

    Tomorrow, 6 December, Tuesday

    Time Temperature Precipitation Wind Pressure Humidity
    00:00 +21°C° 0 mm 2 mps 748 mmHg 96%
    01:00 +21°C° 0 mm 2 mps 748 mmHg 97%
    02:00 +21°C° 0 mm 2 mps 748 mmHg 97%
    03:00 +21°C° 0 mm 2 mps 748 mmHg 97%
    04:00 +21°C° 0 mm 2 mps 748 mmHg 97%
    05:00 +23°C° 0 mm 2 mps 749 mmHg 91%
    06:00 +25°C° 0 mm 2 mps 749 mmHg 86%
    07:00 +26°C° 0 mm 2 mps 749 mmHg 80%
    08:00 +28°C° 0 mm 2 mps 749 mmHg 71%
    09:00 +30°C° 0 mm 3 mps 749 mmHg 61%
    10:00 +33°C° 0 mm 3 mps 749 mmHg 51%
    11:00 +34°C° 0 mm 3 mps 749 mmHg 47%
    12:00 +34°C° 0 mm 3 mps 748 mmHg 44%
    13:00 +35°C° 0 mm 4 mps 748 mmHg 40%
    14:00 +35°C° 0 mm 4 mps 747 mmHg 42%
    15:00 +34°C° 0 mm 4 mps 747 mmHg 43%
    16:00 +33°C° 0 mm 4 mps 747 mmHg 45%
    17:00 +30°C° 0 mm 3 mps 747 mmHg 58%
    18:00 +27°C° 0 mm 3 mps 747 mmHg 71%
    19:00 +25°C° 0 mm 3 mps 747 mmHg 83%
    20:00 +24°C° 0 mm 3 mps 748 mmHg 87%
    21:00 +22°C° 0 mm 3 mps 748 mmHg 91%
    22:00 +21°C° 0 mm 3 mps 749 mmHg 95%
    23:00 +21°C° 0 mm 3 mps 748 mmHg 95%

    Day after tomorrow, 7 December, Wednesday

    Time Temperature Precipitation Wind Pressure Humidity
    00:00 +21°C° 0 mm 3 mps 748 mmHg 94%
    01:00 +21°C° 0 mm 3 mps 747 mmHg 94%
    02:00 +20°C° 0 mm 3 mps 747 mmHg 95%
    03:00 +20°C° 0 mm 2 mps 747 mmHg 95%
    04:00 +20°C° 0 mm 2 mps 747 mmHg 95%
    05:00 +21°C° 0 mm 2 mps 747 mmHg 88%
    06:00 +24°C° 0 mm 2 mps 748 mmHg 81%
    07:00 +26°C° 0 mm 2 mps 748 mmHg 75%
    08:00 +28°C° 0 mm 2 mps 748 mmHg 65%
    09:00 +30°C° 0 mm 2 mps 748 mmHg 56%
    10:00 +33°C° 0 mm 3 mps 748 mmHg 46%
    11:00 +33°C° 0 mm 3 mps 748 mmHg 44%
    12:00 +34°C° 0 mm 3 mps 747 mmHg 41%
    13:00 +35°C° 0 mm 3 mps 747 mmHg 38%
    14:00 +34°C° 0 mm 3 mps 747 mmHg 41%
    15:00 +34°C° 0 mm 3 mps 746 mmHg 44%
    16:00 +33°C° 0 mm 3 mps 746 mmHg 47%
    17:00 +30°C° 0 mm 3 mps 746 mmHg 60%
    18:00 +27°C° 0 mm 3 mps 746 mmHg 72%
    19:00 +25°C° 0 mm 2 mps 747 mmHg 85%
    20:00 +24°C° 0 mm 2 mps 747 mmHg 88%
    21:00 +23°C° 0 mm 2 mps 748 mmHg 92%
    22:00 +21°C° 0 mm 2 mps 748 mmHg 96%
    23:00 +20°C° 0 mm 2 mps 748 mmHg 96%

    8 December, Thursday

    Time Temperature Precipitation Wind Pressure Humidity
    00:00 +20°C° 0 mm 2 mps 747 mmHg 96%
    01:00 +20°C° 0 mm 2 mps 747 mmHg 96%
    02:00 +19°C° 0 mm 2 mps 746 mmHg 97%
    03:00 +19°C° 0 mm 2 mps 746 mmHg 97%
    04:00 +19°C° 0 mm 2 mps 746 mmHg 97%
    05:00 +21°C° 0 mm 2 mps 746 mmHg 91%
    06:00 +24°C° 0 mm 2 mps 747 mmHg 85%
    07:00 +26°C° 0 mm 2 mps 747 mmHg 80%
    08:00 +28°C° 0 mm 2 mps 747 mmHg 70%
    09:00 +30°C° 0 mm 2 mps 747 mmHg 60%
    10:00 +33°C° 0 mm 3 mps 747 mmHg 50%
    11:00 +33°C° 0 mm 3 mps 747 mmHg 48%
    12:00 +34°C° 0 mm 3 mps 746 mmHg 45%
    13:00 +35°C° 0 mm 3 mps 746 mmHg 42%
    14:00 +34°C° 0 mm 3 mps 745 mmHg 46%
    15:00 +34°C° 0 mm 4 mps 745 mmHg 50%
    16:00 +33°C° 0 mm 4 mps 744 mmHg 53%
    17:00 +30°C° 0 mm 3 mps 745 mmHg 65%
    18:00 +28°C° 0 mm 3 mps 745 mmHg 76%
    19:00 +26°C° 0 mm 3 mps 746 mmHg 87%
    20:00 +25°C° 0 mm 3 mps 746 mmHg 89%
    21:00 +25°C° 0 mm 3 mps 747 mmHg 90%
    22:00 +25°C° 0 mm 3 mps 747 mmHg 91%
    23:00 +25°C° 0 mm 2 mps 747 mmHg 90%

    9 December, Friday

    Time Temperature Precipitation Wind Pressure Humidity
    00:00 +24°C° 0 mm 2 mps 746 mmHg 90%
    01:00 +24°C° 0 mm 2 mps 746 mmHg 89%
    02:00 +23°C° 0 mm 2 mps 746 mmHg 92%
    03:00 +21°C° 0 mm 2 mps 746 mmHg 94%
    04:00 +20°C° 0 mm 2 mps 746 mmHg 97%
    05:00 +22°C° 0 mm 1 mps 746 mmHg 92%
    06:00 +24°C° 0 mm 1 mps 746 mmHg 87%
    07:00 +25°C° 0 mm 1 mps 747 mmHg 82%
    08:00 +28°C° 0 mm 1 mps 747 mmHg 70%
    09:00 +31°C° 0 mm 2 mps 747 mmHg 57%
    10:00 +34°C° 0 mm 2 mps 747 mmHg 45%
    11:00 +35°C° 0 mm 2 mps 746 mmHg 43%
    12:00 +36°C° 0 mm 2 mps 746 mmHg 41%
    13:00 +36°C° 0 mm 2 mps 745 mmHg 39%
    14:00 +36°C° 0 mm 3 mps 745 mmHg 42%
    15:00 +35°C° 0 mm 3 mps 744 mmHg 46%
    16:00 +34°C° 0 mm 3 mps 744 mmHg 50%
    17:00 +31°C° 0 mm 3 mps 744 mmHg 60%
    18:00 +28°C° 0 mm 3 mps 745 mmHg 70%
    19:00 +26°C° 0 mm 3 mps 745 mmHg 81%
    20:00 +25°C° 0 mm 3 mps 746 mmHg 86%
    21:00 +24°C° 0 mm 3 mps 746 mmHg 90%
    22:00 +22°C° 0 mm 3 mps 747 mmHg 95%
    23:00 +23°C° 0 mm 2 mps 747 mmHg 96%

    10 December, Saturday

    Time Temperature Precipitation Wind Pressure Humidity
    00:00 +24°C° 0 mm 2 mps 746 mmHg 96%
    01:00 +24°C° 0 mm 2 mps 746 mmHg 96%
    02:00 +24°C° 0 mm 2 mps 746 mmHg 95%
    03:00 +24°C° 0 mm 2 mps 746 mmHg 93%
    04:00 +25°C° 0 mm 2 mps 746 mmHg 92%
    05:00 +26°C° 0 mm 2 mps 746 mmHg 89%
    06:00 +26°C° 0 mm 2 mps 747 mmHg 86%
    07:00 +27°C° 0 mm 2 mps 747 mmHg 82%
    08:00 +28°C° 0 mm 2 mps 748 mmHg 77%
    09:00 +29°C° 0 mm 2 mps 748 mmHg 71%
    10:00 +30°C° 0 mm 3 mps 748 mmHg 65%
    11:00 +31°C° 0 mm 3 mps 747 mmHg 60%
    12:00 +33°C° 0 mm 3 mps 747 mmHg 56%
    13:00 +34°C° 0 mm 4 mps 746 mmHg 51%
    14:00 +33°C° 0 mm 4 mps 746 mmHg 52%
    15:00 +33°C° 0 mm 4 mps 745 mmHg 53%
    16:00 +33°C° 0 mm 4 mps 745 mmHg 54%
    17:00 +30°C° 0 mm 4 mps 746 mmHg 64%
    18:00 +28°C° 0 mm 4 mps 746 mmHg 73%
    19:00 +26°C° 0 mm 4 mps 747 mmHg 83%
    20:00 +26°C° 0 mm 4 mps 747 mmHg 84%
    21:00 +26°C° 0 mm 4 mps 747 mmHg 85%
    22:00 +26°C° 0 mm 4 mps 747 mmHg 87%
    23:00 +26°C° 0.1 mm 4 mps 747 mmHg 88%
    Show more